| time (UTC) | temp C | wind direction | speed KPH | gust KPH | rain 1hr cm | rain 24hr cm | rain mn cm | humidity % | barometer mb |
| 20260510190550 | 24 | 305 | 3.2 | 16.1 | 0.00 | 0.00 | 0.00 | 52 | 1009.3 |
| 20260510190105 | 24 | 9 | 4.8 | 17.7 | 0.00 | 0.00 | 0.00 | 51 | 1009.1 |
| 20260510185552 | 25 | 347 | 4.8 | 17.7 | 0.00 | 0.00 | 0.00 | 51 | 1009.1 |
| 20260510185052 | 25 | 0 | 9.7 | 17.7 | 0.00 | 0.00 | 0.00 | 51 | 1009.2 |
| 20260510184602 | 25 | 28 | 6.4 | 17.7 | 0.00 | 0.00 | 0.00 | 50 | 1009.2 |
| 20260510184052 | 25 | 345 | 1.6 | 11.3 | 0.00 | 0.00 | 0.00 | 50 | 1009.2 |
| 20260510183556 | 25 | 277 | 3.2 | 11.3 | 0.00 | 0.00 | 0.00 | 51 | 1009.1 |
| 20260510183055 | 25 | 259 | 3.2 | 9.7 | 0.00 | 0.00 | 0.00 | 52 | 1009.1 |
| 20260510182554 | 24 | 229 | 3.2 | 14.5 | 0.00 | 0.00 | 0.00 | 52 | 1009.0 |
| 20260510182051 | 24 | 244 | 4.8 | 14.5 | 0.00 | 0.00 | 0.00 | 52 | 1009.1 |
| 20260510181606 | 24 | 0 | 3.2 | 11.3 | 0.00 | 0.00 | 0.00 | 53 | 1009.0 |
| 20260510181054 | 24 | 207 | 4.8 | 19.3 | 0.00 | 0.00 | 0.00 | 53 | 1009.2 |
| 20260510180554 | 24 | 300 | 1.6 | 19.3 | 0.00 | 0.00 | 0.00 | 54 | 1009.2 |
| 20260510180107 | 24 | 213 | 8.0 | 16.1 | 0.00 | 0.00 | 0.00 | 52 | 1009.3 |
| 20260510175554 | 25 | 146 | 1.6 | 14.5 | 0.00 | 0.00 | 0.00 | 52 | 1009.1 |
| 20260510175055 | 25 | 227 | 1.6 | 16.1 | 0.00 | 0.00 | 0.00 | 52 | 1009.2 |
| 20260510174552 | 25 | 0 | 9.7 | 22.5 | 0.00 | 0.00 | 0.00 | 51 | 1009.2 |
| 20260510174057 | 25 | 213 | 1.6 | 24.1 | 0.00 | 0.00 | 0.00 | 51 | 1009.2 |
| 20260510173550 | 25 | 176 | 9.7 | 24.1 | 0.00 | 0.00 | 0.00 | 50 | 1009.2 |
| 20260510173055 | 25 | 0 | 3.2 | 22.5 | 0.00 | 0.00 | 0.00 | 50 | 1009.1 |
| 20260510172554 | 25 | 219 | 9.7 | 22.5 | 0.00 | 0.00 | 0.00 | 51 | 1009.3 |
| 20260510172054 | 25 | 232 | 9.7 | 17.7 | 0.00 | 0.00 | 0.00 | 51 | 1009.2 |
| 20260510171600 | 25 | 209 | 8.0 | 17.7 | 0.00 | 0.00 | 0.00 | 51 | 1009.3 |
| 20260510171050 | 25 | 228 | 4.8 | 16.1 | 0.00 | 0.00 | 0.00 | 51 | 1009.2 |
| 20260510170551 | 25 | 248 | 3.2 | 16.1 | 0.00 | 0.00 | 0.00 | 53 | 1009.1 |
| 20260510170121 | 25 | 211 | 4.8 | 17.7 | 0.00 | 0.00 | 0.00 | 52 | 1009.2 |
| 20260510165551 | 25 | 258 | 6.4 | 17.7 | 0.00 | 0.00 | 0.00 | 53 | 1009.2 |
| 20260510165051 | 25 | 155 | 1.6 | 11.3 | 0.00 | 0.00 | 0.00 | 55 | 1009.3 |
| 20260510164605 | 24 | 166 | 0.0 | 12.9 | 0.00 | 0.00 | 0.00 | 56 | 1009.3 |
| 20260510164051 | 24 | 192 | 1.6 | 12.9 | 0.00 | 0.00 | 0.00 | 57 | 1009.2 |
| 20260510163552 | 23 | 138 | 1.6 | 14.5 | 0.00 | 0.00 | 0.00 | 57 | 1009.4 |
| 20260510163054 | 23 | 0 | 4.8 | 14.5 | 0.00 | 0.00 | 0.00 | 57 | 1009.3 |
| 20260510162555 | 23 | 0 | 1.6 | 11.3 | 0.00 | 0.00 | 0.00 | 58 | 1009.3 |
| 20260510162059 | 23 | 163 | 1.6 | 9.7 | 0.00 | 0.00 | 0.00 | 58 | 1009.3 |
| 20260510161554 | 23 | 148 | 3.2 | 11.3 | 0.00 | 0.00 | 0.00 | 58 | 1009.2 |
| 20260510161056 | 23 | 140 | 3.2 | 11.3 | 0.00 | 0.00 | 0.00 | 59 | 1009.2 |
| 20260510160556 | 22 | 136 | 1.6 | 6.4 | 0.00 | 0.00 | 0.00 | 59 | 1009.2 |
| 20260510160055 | 22 | 0 | 1.6 | 6.4 | 0.00 | 0.00 | 0.00 | 60 | 1009.3 |
| 20260510155555 | 22 | 0 | 0.0 | 8.0 | 0.00 | 0.00 | 0.00 | 62 | 1009.4 |
| 20260510155056 | 22 | 0 | 1.6 | 9.7 | 0.00 | 0.00 | 0.00 | 62 | 1009.4 |
| 20260510154558 | 21 | 0 | 3.2 | 9.7 | 0.00 | 0.00 | 0.00 | 62 | 1009.4 |
| 20260510154056 | 21 | 117 | 1.6 | 9.7 | 0.00 | 0.00 | 0.00 | 63 | 1009.4 |
| 20260510153557 | 21 | 203 | 1.6 | 8.0 | 0.00 | 0.00 | 0.00 | 65 | 1009.4 |
| 20260510153059 | 21 | 144 | 0.0 | 9.7 | 0.00 | 0.00 | 0.00 | 66 | 1009.3 |
| 20260510152556 | 20 | 115 | 3.2 | 9.7 | 0.00 | 0.00 | 0.00 | 67 | 1009.4 |
| 20260510152056 | 20 | 0 | 1.6 | 6.4 | 0.00 | 0.00 | 0.00 | 68 | 1009.6 |
| 20260510151559 | 20 | 82 | 0.0 | 11.3 | 0.00 | 0.00 | 0.00 | 68 | 1009.5 |
| 20260510151056 | 19 | 50 | 1.6 | 11.3 | 0.00 | 0.00 | 0.00 | 69 | 1009.5 |
| 20260510150556 | 19 | 121 | 1.6 | 9.7 | 0.00 | 0.00 | 0.00 | 70 | 1009.5 |
| 20260510150055 | 19 | 153 | 3.2 | 9.7 | 0.00 | 0.00 | 0.00 | 70 | 1009.6 |
| 20260510145555 | 18 | 81 | 1.6 | 9.7 | 0.00 | 0.00 | 0.00 | 71 | 1009.7 |
| 20260510145056 | 18 | 99 | 0.0 | 9.7 | 0.00 | 0.00 | 0.00 | 71 | 1009.6 |
| 20260510144557 | 18 | 141 | 1.6 | 8.0 | 0.00 | 0.00 | 0.00 | 72 | 1009.6 |
| 20260510144056 | 18 | 112 | 1.6 | 8.0 | 0.00 | 0.00 | 0.00 | 73 | 1009.7 |
| 20260510143555 | 18 | 218 | 0.0 | 6.4 | 0.00 | 0.00 | 0.00 | 73 | 1009.6 |
| 20260510143053 | 18 | 190 | 0.0 | 6.4 | 0.00 | 0.00 | 0.00 | 73 | 1009.6 |
| 20260510142555 | 18 | 63 | 1.6 | 6.4 | 0.00 | 0.00 | 0.00 | 74 | 1009.6 |
| 20260510142056 | 17 | 69 | 1.6 | 9.7 | 0.00 | 0.00 | 0.00 | 74 | 1009.7 |
| 20260510141555 | 17 | 124 | 0.0 | 9.7 | 0.00 | 0.00 | 0.00 | 76 | 1009.6 |
| 20260510141057 | 17 | 0 | 0.0 | 8.0 | 0.00 | 0.00 | 0.00 | 76 | 1009.7 |
| 20260510140556 | 16 | 94 | 0.0 | 8.0 | 0.00 | 0.00 | 0.00 | 78 | 1009.7 |
| 20260510140059 | 16 | 0 | 3.2 | 8.0 | 0.00 | 0.00 | 0.00 | 78 | 1009.7 |
| 20260510135556 | 16 | 78 | 3.2 | 8.0 | 0.00 | 0.00 | 0.00 | 77 | 1009.7 |
| 20260510135056 | 16 | 0 | 1.6 | 8.0 | 0.00 | 0.00 | 0.00 | 78 | 1009.7 |
| 20260510134601 | 16 | 165 | 1.6 | 6.4 | 0.00 | 0.00 | 0.00 | 78 | 1009.6 |
| 20260510134055 | 16 | 194 | 0.0 | 3.2 | 0.00 | 0.00 | 0.00 | 79 | 1009.6 |
| 20260510133600 | 16 | 0 | 0.0 | 6.4 | 0.00 | 0.00 | 0.00 | 80 | 1009.6 |
| 20260510133058 | 15 | 0 | 0.0 | 6.4 | 0.00 | 0.00 | 0.00 | 80 | 1009.5 |
| 20260510132556 | 15 | 229 | 0.0 | 6.4 | 0.00 | 0.00 | 0.00 | 81 | 1009.5 |
| 20260510132056 | 15 | 108 | 0.0 | 6.4 | 0.00 | 0.00 | 0.00 | 82 | 1009.5 |
| 20260510131557 | 15 | 97 | 1.6 | 6.4 | 0.00 | 0.00 | 0.00 | 83 | 1009.8 |
| 20260510131055 | 15 | 0 | 0.0 | 4.8 | 0.00 | 0.00 | 0.00 | 84 | 1009.7 |
| 20260510130556 | 14 | 0 | 0.0 | 6.4 | 0.00 | 0.00 | 0.00 | 85 | 1009.9 |
| 20260510130057 | 14 | 62 | 3.2 | 6.4 | 0.00 | 0.00 | 0.00 | 85 | 1009.8 |
| 20260510125553 | 13 | 0 | 0.0 | 4.8 | 0.00 | 0.00 | 0.00 | 86 | 1009.7 |
| 20260510125056 | 13 | 254 | 0.0 | 4.8 | 0.00 | 0.00 | 0.00 | 86 | 1009.8 |
| 20260510124611 | 13 | 0 | 0.0 | 4.8 | 0.00 | 0.00 | 0.00 | 87 | 1009.8 |
| 20260510124058 | 13 | 0 | 1.6 | 4.8 | 0.00 | 0.00 | 0.00 | 87 | 1009.7 |
| 20260510123557 | 13 | 0 | 1.6 | 6.4 | 0.00 | 0.00 | 0.00 | 87 | 1009.5 |
| 20260510123103 | 13 | 0 | 0.0 | 6.4 | 0.00 | 0.00 | 0.00 | 87 | 1009.4 |
| 20260510122556 | 13 | 50 | 0.0 | 4.8 | 0.00 | 0.00 | 0.00 | 88 | 1009.3 |
| 20260510122056 | 13 | 131 | 0.0 | 8.0 | 0.00 | 0.00 | 0.00 | 88 | 1009.3 |
| 20260510121554 | 13 | 0 | 0.0 | 8.0 | 0.00 | 0.00 | 0.00 | 89 | 1009.3 |
| 20260510121055 | 13 | 97 | 1.6 | 8.0 | 0.00 | 0.00 | 0.00 | 89 | 1009.3 |
| 20260510120555 | 12 | 0 | 0.0 | 6.4 | 0.00 | 0.00 | 0.00 | 89 | 1009.3 |
| 20260510115556 | 12 | 49 | 0.0 | 4.8 | 0.00 | 0.00 | 0.00 | 89 | 1009.2 |
| 20260510115056 | 12 | 88 | 0.0 | 6.4 | 0.00 | 0.00 | 0.00 | 89 | 1009.2 |
| 20260510114556 | 12 | 104 | 0.0 | 6.4 | 0.00 | 0.00 | 0.00 | 89 | 1009.3 |
| 20260510114056 | 12 | 78 | 0.0 | 6.4 | 0.00 | 0.00 | 0.00 | 89 | 1009.1 |
| 20260510113555 | 12 | 0 | 0.0 | 6.4 | 0.00 | 0.00 | 0.00 | 89 | 1008.9 |
| 20260510113055 | 12 | 355 | 1.6 | 6.4 | 0.00 | 0.00 | 0.00 | 89 | 1009.0 |
| 20260510112557 | 12 | 0 | 0.0 | 6.4 | 0.00 | 0.00 | 0.00 | 89 | 1009.0 |
| 20260510112056 | 12 | 0 | 0.0 | 6.4 | 0.00 | 0.00 | 0.00 | 89 | 1009.0 |
| 20260510111559 | 12 | 343 | 0.0 | 6.4 | 0.00 | 0.00 | 0.00 | 89 | 1008.9 |
| 20260510111056 | 12 | 0 | 1.6 | 6.4 | 0.00 | 0.00 | 0.00 | 90 | 1008.8 |
| 20260510110557 | 12 | 0 | 1.6 | 4.8 | 0.00 | 0.00 | 0.00 | 90 | 1008.6 |
| 20260510110055 | 12 | 111 | 1.6 | 4.8 | 0.00 | 0.00 | 0.00 | 90 | 1008.7 |
| 20260510105556 | 11 | 85 | 0.0 | 6.4 | 0.00 | 0.00 | 0.00 | 90 | 1008.6 |
| 20260510105055 | 11 | 0 | 1.6 | 6.4 | 0.00 | 0.00 | 0.00 | 90 | 1008.5 |
| 20260510104559 | 11 | 91 | 1.6 | 6.4 | 0.00 | 0.00 | 0.00 | 90 | 1008.5 |
| 20260510104056 | 11 | 74 | 0.0 | 4.8 | 0.00 | 0.00 | 0.00 | 90 | 1008.2 |
| 20260510103556 | 11 | 0 | 0.0 | 4.8 | 0.00 | 0.00 | 0.00 | 90 | 1008.3 |
| 20260510103056 | 11 | 0 | 1.6 | 8.0 | 0.00 | 0.00 | 0.00 | 90 | 1008.1 |
| 20260510102556 | 11 | 0 | 3.2 | 8.0 | 0.00 | 0.00 | 0.00 | 90 | 1008.0 |
| 20260510102057 | 11 | 75 | 1.6 | 8.0 | 0.00 | 0.00 | 0.00 | 91 | 1008.1 |
| 20260510101555 | 11 | 327 | 1.6 | 6.4 | 0.00 | 0.00 | 0.00 | 91 | 1008.3 |
| 20260510101056 | 11 | 72 | 1.6 | 4.8 | 0.00 | 0.00 | 0.00 | 91 | 1008.1 |
| 20260510100554 | 11 | 0 | 0.0 | 4.8 | 0.00 | 0.00 | 0.00 | 91 | 1008.1 |
| 20260510095555 | 11 | 0 | 0.0 | 8.0 | 0.00 | 0.00 | 0.00 | 91 | 1008.1 |
| 20260510095050 | 11 | 0 | 0.0 | 12.9 | 0.00 | 0.00 | 0.00 | 91 | 1008.1 |
| 20260510094556 | 11 | 24 | 3.2 | 12.9 | 0.00 | 0.00 | 0.00 | 92 | 1008.2 |
| 20260510094054 | 11 | 12 | 4.8 | 14.5 | 0.00 | 0.00 | 0.00 | 92 | 1008.1 |
| 20260510093554 | 11 | 10 | 3.2 | 14.5 | 0.00 | 0.00 | 0.00 | 92 | 1007.9 |
| 20260510093112 | 11 | 5 | 4.8 | 14.5 | 0.00 | 0.00 | 0.00 | 91 | 1007.8 |
| 20260510092552 | 11 | 349 | 3.2 | 17.7 | 0.00 | 0.00 | 0.00 | 91 | 1007.8 |
| 20260510092055 | 11 | 5 | 8.0 | 17.7 | 0.00 | 0.00 | 0.00 | 91 | 1007.6 |
| 20260510091556 | 11 | 329 | 4.8 | 20.9 | 0.00 | 0.00 | 0.00 | 90 | 1007.7 |
| 20260510091052 | 11 | 25 | 4.8 | 22.5 | 0.00 | 0.00 | 0.00 | 90 | 1007.7 |
| 20260510090552 | 11 | 329 | 11.3 | 22.5 | 0.00 | 0.00 | 0.00 | 90 | 1007.7 |
| 20260510090055 | 11 | 342 | 8.0 | 22.5 | 0.00 | 0.00 | 0.00 | 90 | 1007.6 |
| 20260510085553 | 12 | 13 | 6.4 | 19.3 | 0.00 | 0.00 | 0.00 | 90 | 1007.8 |
| 20260510085055 | 12 | 348 | 4.8 | 9.7 | 0.00 | 0.00 | 0.00 | 91 | 1007.5 |
| 20260510084555 | 12 | 26 | 0.0 | 4.8 | 0.00 | 0.00 | 0.00 | 91 | 1007.4 |
| 20260510084053 | 12 | 0 | 0.0 | 3.2 | 0.00 | 0.00 | 0.00 | 90 | 1007.3 |
| 20260510083553 | 12 | 0 | 0.0 | 4.8 | 0.00 | 0.00 | 0.00 | 90 | 1007.3 |
| 20260510083106 | 12 | 0 | 0.0 | 4.8 | 0.00 | 0.00 | 0.00 | 90 | 1007.4 |
| 20260510082552 | 12 | 58 | 0.0 | 4.8 | 0.00 | 0.00 | 0.00 | 90 | 1007.2 |
| 20260510082052 | 12 | 0 | 0.0 | 4.8 | 0.00 | 0.00 | 0.00 | 91 | 1007.3 |
| 20260510081554 | 12 | 0 | 0.0 | 6.4 | 0.00 | 0.00 | 0.00 | 91 | 1007.3 |
| 20260510081053 | 12 | 0 | 0.0 | 6.4 | 0.00 | 0.00 | 0.00 | 91 | 1007.3 |
| 20260510080553 | 12 | 0 | 0.0 | 6.4 | 0.00 | 0.00 | 0.00 | 91 | 1007.2 |
| 20260510080103 | 12 | 350 | 0.0 | 4.8 | 0.00 | 0.00 | 0.00 | 91 | 1007.3 |
| 20260510075552 | 12 | 0 | 0.0 | 6.4 | 0.00 | 0.00 | 0.00 | 91 | 1007.3 |
| 20260510075052 | 12 | 0 | 1.6 | 6.4 | 0.00 | 0.00 | 0.00 | 91 | 1007.3 |
| 20260510074556 | 12 | 351 | 0.0 | 1.6 | 0.00 | 0.00 | 0.00 | 91 | 1007.3 |
| 20260510074052 | 12 | 0 | 0.0 | 3.2 | 0.00 | 0.00 | 0.00 | 91 | 1007.2 |
| 20260510073552 | 12 | 0 | 0.0 | 3.2 | 0.00 | 0.00 | 0.00 | 91 | 1007.0 |
| 20260510073106 | 12 | 0 | 0.0 | 3.2 | 0.00 | 0.00 | 0.00 | 91 | 1007.1 |
| 20260510072552 | 12 | 0 | 0.0 | 4.8 | 0.00 | 0.00 | 0.00 | 91 | 1006.9 |
| 20260510072056 | 12 | 0 | 1.6 | 4.8 | 0.00 | 0.00 | 0.00 | 91 | 1006.9 |
| 20260510071559 | 12 | 11 | 1.6 | 4.8 | 0.00 | 0.00 | 0.00 | 91 | 1006.7 |
| 20260510071052 | 12 | 15 | 0.0 | 4.8 | 0.00 | 0.00 | 0.00 | 91 | 1006.7 |
| 20260510070552 | 12 | 0 | 1.6 | 6.4 | 0.00 | 0.00 | 0.00 | 91 | 1006.6 |
| 20260510070057 | 12 | 74 | 1.6 | 6.4 | 0.00 | 0.00 | 0.00 | 91 | 1006.7 |
| 20260510065553 | 12 | 0 | 0.0 | 6.4 | 0.00 | 0.00 | 0.00 | 91 | 1006.7 |
| 20260510065056 | 12 | 0 | 0.0 | 0.0 | 0.00 | 0.00 | 0.00 | 91 | 1006.7 |
| 20260510064558 | 12 | 0 | 0.0 | 0.0 | 0.00 | 0.00 | 0.00 | 91 | 1006.7 |
| 20260510064056 | 12 | 0 | 0.0 | 0.0 | 0.00 | 0.00 | 0.00 | 91 | 1006.8 |
| 20260510063556 | 12 | 0 | 0.0 | 0.0 | 0.00 | 0.00 | 0.00 | 90 | 1006.8 |
| 20260510063056 | 12 | 0 | 0.0 | 0.0 | 0.00 | 0.00 | 0.00 | 90 | 1006.9 |
| 20260510062557 | 12 | 0 | 0.0 | 0.0 | 0.00 | 0.00 | 0.00 | 90 | 1006.8 |
| 20260510062056 | 12 | 0 | 0.0 | 0.0 | 0.00 | 0.00 | 0.00 | 90 | 1006.9 |
| 20260510061554 | 12 | 0 | 0.0 | 6.4 | 0.00 | 0.00 | 0.00 | 90 | 1006.8 |
| 20260510061057 | 12 | 0 | 0.0 | 6.4 | 0.00 | 0.00 | 0.00 | 90 | 1006.9 |
| 20260510060559 | 12 | 0 | 1.6 | 6.4 | 0.00 | 0.00 | 0.00 | 90 | 1006.9 |
| 20260510060057 | 12 | 68 | 0.0 | 6.4 | 0.00 | 0.00 | 0.00 | 90 | 1006.9 |
| 20260510055556 | 12 | 83 | 3.2 | 6.4 | 0.00 | 0.00 | 0.00 | 90 | 1007.1 |
| 20260510055055 | 12 | 74 | 1.6 | 6.4 | 0.00 | 0.00 | 0.00 | 90 | 1007.0 |
| 20260510054556 | 12 | 85 | 1.6 | 6.4 | 0.00 | 0.00 | 0.00 | 90 | 1007.0 |
| 20260510054056 | 12 | 70 | 1.6 | 6.4 | 0.00 | 0.00 | 0.00 | 90 | 1007.1 |
| 20260510053552 | 12 | 0 | 1.6 | 6.4 | 0.00 | 0.00 | 0.00 | 89 | 1007.3 |
| 20260510053057 | 12 | 0 | 1.6 | 6.4 | 0.00 | 0.00 | 0.00 | 89 | 1007.2 |
| 20260510052556 | 12 | 87 | 0.0 | 6.4 | 0.00 | 0.00 | 0.00 | 89 | 1007.2 |
| 20260510052056 | 12 | 53 | 1.6 | 6.4 | 0.00 | 0.00 | 0.00 | 89 | 1007.3 |
| 20260510051557 | 12 | 49 | 1.6 | 6.4 | 0.00 | 0.00 | 0.00 | 89 | 1007.3 |
| 20260510051057 | 12 | 91 | 1.6 | 6.4 | 0.00 | 0.00 | 0.00 | 89 | 1007.4 |
| 20260510050557 | 12 | 60 | 1.6 | 6.4 | 0.00 | 0.00 | 0.00 | 89 | 1007.3 |
| 20260510050056 | 12 | 38 | 1.6 | 6.4 | 0.00 | 0.00 | 0.00 | 88 | 1007.4 |
| 20260510045556 | 13 | 61 | 1.6 | 6.4 | 0.00 | 0.00 | 0.00 | 88 | 1007.5 |
| 20260510045056 | 13 | 47 | 1.6 | 8.0 | 0.00 | 0.00 | 0.00 | 88 | 1007.6 |
| 20260510044557 | 13 | 0 | 1.6 | 9.7 | 0.00 | 0.00 | 0.00 | 88 | 1007.4 |
| 20260510044056 | 13 | 92 | 1.6 | 9.7 | 0.00 | 0.00 | 0.00 | 88 | 1007.4 |
| 20260510043557 | 13 | 55 | 1.6 | 6.4 | 0.00 | 0.00 | 0.00 | 88 | 1007.5 |
| 20260510043053 | 13 | 57 | 3.2 | 6.4 | 0.00 | 0.00 | 0.00 | 87 | 1007.6 |
| 20260510042556 | 13 | 80 | 1.6 | 4.8 | 0.00 | 0.00 | 0.00 | 87 | 1007.6 |
| 20260510042056 | 13 | 0 | 0.0 | 4.8 | 0.00 | 0.00 | 0.00 | 87 | 1007.6 |
| 20260510041555 | 13 | 0 | 1.6 | 4.8 | 0.00 | 0.00 | 0.00 | 87 | 1007.7 |
| 20260510041056 | 13 | 51 | 0.0 | 4.8 | 0.00 | 0.00 | 0.00 | 87 | 1007.7 |
| 20260510040556 | 13 | 0 | 0.0 | 8.0 | 0.00 | 0.00 | 0.00 | 87 | 1007.6 |
| 20260510040057 | 13 | 0 | 0.0 | 8.0 | 0.00 | 0.00 | 0.00 | 87 | 1007.7 |
| 20260510035556 | 13 | 83 | 1.6 | 8.0 | 0.00 | 0.00 | 0.00 | 86 | 1007.7 |
| 20260510035056 | 13 | 0 | 1.6 | 6.4 | 0.00 | 0.00 | 0.00 | 86 | 1007.6 |
| 20260510034556 | 13 | 54 | 1.6 | 6.4 | 0.00 | 0.00 | 0.00 | 86 | 1007.6 |
| 20260510034057 | 13 | 54 | 0.0 | 3.2 | 0.00 | 0.00 | 0.00 | 86 | 1007.6 |
| 20260510033553 | 13 | 0 | 0.0 | 3.2 | 0.00 | 0.00 | 0.00 | 86 | 1007.6 |
| 20260510033124 | 13 | 0 | 0.0 | 4.8 | 0.00 | 0.00 | 0.00 | 86 | 1007.4 |
| 20260510032552 | 13 | 0 | 0.0 | 6.4 | 0.00 | 0.00 | 0.00 | 86 | 1007.3 |
| 20260510032052 | 13 | 0 | 0.0 | 6.4 | 0.00 | 0.00 | 0.00 | 86 | 1007.5 |
| 20260510031558 | 13 | 0 | 1.6 | 6.4 | 0.00 | 0.00 | 0.00 | 86 | 1007.3 |
| 20260510031052 | 13 | 74 | 1.6 | 6.4 | 0.00 | 0.00 | 0.00 | 86 | 1007.3 |
| 20260510030552 | 13 | 82 | 0.0 | 6.4 | 0.00 | 0.00 | 0.00 | 86 | 1007.1 |
| 20260510025554 | 13 | 84 | 0.0 | 4.8 | 0.00 | 0.00 | 0.00 | 86 | 1007.0 |
| 20260510025052 | 13 | 130 | 0.0 | 4.8 | 0.00 | 0.00 | 0.00 | 86 | 1007.0 |
| 20260510024604 | 13 | 0 | 0.0 | 4.8 | 0.00 | 0.00 | 0.00 | 86 | 1007.1 |
| 20260510024058 | 13 | 82 | 0.0 | 4.8 | 0.00 | 0.00 | 0.00 | 86 | 1007.2 |
| 20260510023554 | 13 | 0 | 0.0 | 3.2 | 0.00 | 0.00 | 0.00 | 86 | 1007.3 |
| 20260510023056 | 13 | 0 | 0.0 | 3.2 | 0.00 | 0.00 | 0.00 | 85 | 1007.2 |
| 20260510022555 | 13 | 0 | 0.0 | 3.2 | 0.00 | 0.00 | 0.00 | 85 | 1007.1 |
| 20260510022053 | 13 | 0 | 0.0 | 3.2 | 0.00 | 0.00 | 0.00 | 85 | 1007.1 |
| 20260510021557 | 13 | 0 | 0.0 | 3.2 | 0.00 | 0.00 | 0.00 | 85 | 1007.1 |
| 20260510021054 | 13 | 0 | 0.0 | 4.8 | 0.00 | 0.00 | 0.00 | 85 | 1007.2 |
| 20260510020552 | 14 | 0 | 0.0 | 4.8 | 0.00 | 0.00 | 0.00 | 85 | 1007.1 |
| 20260510020058 | 14 | 0 | 0.0 | 4.8 | 0.00 | 0.00 | 0.00 | 85 | 1007.1 |
| 20260510015553 | 14 | 80 | 0.0 | 6.4 | 0.00 | 0.00 | 0.00 | 85 | 1007.0 |
| 20260510015052 | 14 | 0 | 0.0 | 6.4 | 0.00 | 0.00 | 0.00 | 85 | 1006.9 |
| 20260510014555 | 14 | 0 | 1.6 | 9.7 | 0.00 | 0.00 | 0.00 | 85 | 1007.0 |
| 20260510014052 | 14 | 0 | 0.0 | 9.7 | 0.00 | 0.00 | 0.00 | 85 | 1006.9 |
| 20260510013552 | 14 | 63 | 0.0 | 3.2 | 0.00 | 0.00 | 0.00 | 85 | 1007.0 |
| 20260510013055 | 14 | 0 | 0.0 | 4.8 | 0.00 | 0.00 | 0.00 | 85 | 1007.0 |
| 20260510012556 | 14 | 0 | 0.0 | 4.8 | 0.00 | 0.00 | 0.00 | 85 | 1007.0 |
| 20260510012054 | 14 | 0 | 0.0 | 4.8 | 0.00 | 0.00 | 0.00 | 84 | 1007.0 |
| 20260510011555 | 14 | 0 | 0.0 | 6.4 | 0.00 | 0.00 | 0.00 | 85 | 1006.9 |
| 20260510011055 | 14 | 0 | 1.6 | 6.4 | 0.00 | 0.00 | 0.00 | 85 | 1006.9 |
| 20260510010554 | 14 | 0 | 0.0 | 6.4 | 0.00 | 0.00 | 0.00 | 84 | 1006.8 |
| 20260510005555 | 14 | 0 | 0.0 | 6.4 | 0.00 | 0.00 | 0.00 | 84 | 1006.7 |
| 20260510005054 | 14 | 0 | 0.0 | 11.3 | 0.00 | 0.00 | 0.00 | 83 | 1006.8 |
| 20260510004557 | 14 | 0 | 1.6 | 11.3 | 0.00 | 0.00 | 0.00 | 83 | 1006.6 |
| 20260510004052 | 15 | 0 | 1.6 | 6.4 | 0.00 | 0.00 | 0.00 | 83 | 1006.7 |
| 20260510003552 | 15 | 76 | 0.0 | 8.0 | 0.00 | 0.00 | 0.00 | 83 | 1006.9 |
| 20260510003105 | 15 | 0 | 1.6 | 8.0 | 0.00 | 0.00 | 0.00 | 82 | 1006.8 |
| 20260510002552 | 15 | 96 | 1.6 | 8.0 | 0.00 | 0.00 | 0.00 | 82 | 1006.7 |
| 20260510002052 | 15 | 0 | 0.0 | 8.0 | 0.00 | 0.00 | 0.00 | 82 | 1006.7 |
| 20260510001556 | 15 | 62 | 1.6 | 8.0 | 0.00 | 0.00 | 0.00 | 81 | 1006.6 |
| 20260510001052 | 15 | 130 | 0.0 | 9.7 | 0.00 | 0.00 | 0.00 | 81 | 1006.6 |
| 20260510000552 | 15 | 152 | 0.0 | 9.7 | 0.00 | 0.00 | 0.00 | 81 | 1006.5 |
| 20260510000057 | 15 | 0 | 0.0 | 6.4 | 0.00 | 0.00 | 0.00 | 81 | 1006.6 |
| 20260509235553 | 15 | 0 | 0.0 | 6.4 | 0.00 | 0.00 | 0.00 | 81 | 1006.6 |
| 20260509235053 | 15 | 0 | 0.0 | 8.0 | 0.00 | 0.00 | 0.00 | 80 | 1006.6 |
| 20260509234609 | 15 | 0 | 1.6 | 8.0 | 0.00 | 0.00 | 0.00 | 79 | 1006.6 |
| 20260509234055 | 15 | 72 | 1.6 | 6.4 | 0.00 | 0.00 | 0.00 | 79 | 1006.5 |
| 20260509233558 | 15 | 148 | 0.0 | 8.0 | 0.00 | 0.00 | 0.00 | 78 | 1006.6 |
| 20260509233053 | 15 | 0 | 1.6 | 8.0 | 0.00 | 0.00 | 0.00 | 78 | 1006.5 |
| 20260509232557 | 16 | 101 | 1.6 | 6.4 | 0.00 | 0.00 | 0.00 | 78 | 1006.3 |
| 20260509232055 | 16 | 0 | 1.6 | 6.4 | 0.00 | 0.00 | 0.00 | 78 | 1006.3 |
| 20260509231600 | 16 | 96 | 1.6 | 14.5 | 0.00 | 0.00 | 0.00 | 79 | 1006.3 |
| 20260509231052 | 16 | 88 | 1.6 | 14.5 | 0.00 | 0.00 | 0.00 | 78 | 1006.2 |
| 20260509230552 | 16 | 105 | 4.8 | 14.5 | 0.00 | 0.00 | 0.00 | 78 | 1006.2 |
| 20260509225555 | 16 | 0 | 1.6 | 11.3 | 0.00 | 0.00 | 0.00 | 79 | 1006.1 |
| 20260509225052 | 15 | 0 | 0.0 | 11.3 | 0.00 | 0.00 | 0.00 | 79 | 1006.2 |
| 20260509224559 | 15 | 75 | 0.0 | 9.7 | 0.00 | 0.00 | 0.00 | 78 | 1006.2 |
| 20260509224052 | 15 | 54 | 3.2 | 11.3 | 0.00 | 0.00 | 0.00 | 77 | 1006.3 |
| 20260509223552 | 15 | 0 | 1.6 | 11.3 | 0.00 | 0.00 | 0.00 | 77 | 1006.5 |
| 20260509223102 | 15 | 0 | 3.2 | 9.7 | 0.00 | 0.00 | 0.00 | 77 | 1006.3 |
| 20260509222556 | 15 | 130 | 1.6 | 9.7 | 0.00 | 0.00 | 0.00 | 77 | 1006.5 |
| 20260509222054 | 15 | 92 | 1.6 | 11.3 | 0.00 | 0.00 | 0.00 | 77 | 1006.4 |
| 20260509221555 | 15 | 70 | 4.8 | 11.3 | 0.00 | 0.00 | 0.00 | 76 | 1006.5 |
| 20260509221053 | 15 | 74 | 0.0 | 9.7 | 0.00 | 0.00 | 0.00 | 77 | 1006.4 |
| 20260509220555 | 15 | 85 | 3.2 | 12.9 | 0.00 | 0.00 | 0.00 | 76 | 1006.5 |
| 20260509220054 | 15 | 61 | 4.8 | 12.9 | 0.00 | 0.00 | 0.00 | 77 | 1006.5 |
| 20260509215554 | 15 | 81 | 1.6 | 11.3 | 0.00 | 0.00 | 0.00 | 77 | 1006.6 |
| 20260509215053 | 15 | 61 | 0.0 | 12.9 | 0.00 | 0.00 | 0.00 | 77 | 1006.6 |
| 20260509214553 | 15 | 78 | 4.8 | 12.9 | 0.00 | 0.00 | 0.00 | 76 | 1006.7 |
| 20260509214056 | 15 | 89 | 1.6 | 12.9 | 0.00 | 0.00 | 0.00 | 77 | 1006.8 |
| 20260509213552 | 15 | 0 | 0.0 | 8.0 | 0.00 | 0.00 | 0.00 | 77 | 1006.8 |
| 20260509213057 | 15 | 0 | 0.0 | 11.3 | 0.00 | 0.00 | 0.00 | 77 | 1006.7 |
| 20260509212552 | 15 | 62 | 1.6 | 12.9 | 0.00 | 0.00 | 0.00 | 77 | 1006.6 |
| 20260509212052 | 16 | 84 | 3.2 | 12.9 | 0.00 | 0.00 | 0.00 | 75 | 1006.6 |
| 20260509211555 | 16 | 49 | 4.8 | 11.3 | 0.00 | 0.00 | 0.00 | 73 | 1006.6 |
| 20260509211052 | 16 | 0 | 0.0 | 9.7 | 0.00 | 0.00 | 0.00 | 73 | 1006.7 |
| 20260509210552 | 16 | 0 | 0.0 | 9.7 | 0.00 | 0.00 | 0.00 | 74 | 1006.9 |
| 20260509210058 | 16 | 16 | 1.6 | 8.0 | 0.00 | 0.00 | 0.00 | 74 | 1006.9 |
| 20260509205553 | 16 | 21 | 1.6 | 11.3 | 0.00 | 0.00 | 0.00 | 73 | 1006.7 |
| 20260509205055 | 16 | 53 | 1.6 | 12.9 | 0.00 | 0.00 | 0.00 | 73 | 1006.6 |
| 20260509204556 | 16 | 0 | 3.2 | 12.9 | 0.00 | 0.00 | 0.00 | 72 | 1006.5 |
| 20260509204055 | 16 | 51 | 4.8 | 11.3 | 0.00 | 0.00 | 0.00 | 71 | 1006.7 |
| 20260509203554 | 16 | 49 | 1.6 | 16.1 | 0.00 | 0.00 | 0.00 | 71 | 1006.7 |
| 20260509203058 | 16 | 9 | 1.6 | 16.1 | 0.00 | 0.00 | 0.00 | 71 | 1006.5 |
| 20260509202554 | 16 | 11 | 4.8 | 16.1 | 0.00 | 0.00 | 0.00 | 71 | 1006.6 |
| 20260509202055 | 16 | 327 | 3.2 | 17.7 | 0.00 | 0.00 | 0.00 | 73 | 1006.4 |
| 20260509201554 | 16 | 340 | 6.4 | 17.7 | 0.00 | 0.00 | 0.00 | 72 | 1006.2 |
| 20260509201054 | 16 | 309 | 8.0 | 17.7 | 0.00 | 0.00 | 0.00 | 72 | 1006.1 |
| 20260509200554 | 16 | 48 | 6.4 | 16.1 | 0.00 | 0.00 | 0.00 | 72 | 1006.2 |
| 20260509200055 | 16 | 338 | 6.4 | 14.5 | 0.00 | 0.00 | 0.00 | 72 | 1006.5 |
| 20260509195557 | 16 | 346 | 6.4 | 16.1 | 0.00 | 0.00 | 0.00 | 72 | 1006.4 |
| 20260509195054 | 16 | 291 | 4.8 | 16.1 | 0.00 | 0.00 | 0.00 | 73 | 1006.3 |
| 20260509194554 | 16 | 312 | 6.4 | 16.1 | 0.00 | 0.00 | 0.00 | 73 | 1006.2 |
| 20260509194058 | 16 | 310 | 3.2 | 17.7 | 0.00 | 0.00 | 0.00 | 75 | 1006.6 |
| 20260509193555 | 15 | 348 | 4.8 | 17.7 | 0.00 | 0.00 | 0.00 | 75 | 1006.7 |
| 20260509193055 | 15 | 325 | 6.4 | 17.7 | 0.00 | 0.00 | 0.00 | 75 | 1006.8 |
| 20260509192555 | 15 | 20 | 4.8 | 17.7 | 0.00 | 0.00 | 0.00 | 74 | 1006.9 |
| 20260509192055 | 16 | 333 | 4.8 | 16.1 | 0.00 | 0.00 | 0.00 | 73 | 1006.9 |
| 20260509191552 | 16 | 11 | 4.8 | 16.1 | 0.00 | 0.00 | 0.00 | 73 | 1007.1 |
| 20260509191053 | 15 | 360 | 8.0 | 16.1 | 0.00 | 0.00 | 0.00 | 72 | 1007.1 |